{"data":{"norad_id":43778,"intl_designator":"2018-099W","name":"SPAWAR-CAL-OR","alt_names":[],"object_type":"PAYLOAD","status":"ACTIVE","operator":null,"country":"US","launch_date":"2018-12-03","launch_site_code":"AFWTR","launch_vehicle":null,"mission":null,"orbit_class":"UNKNOWN","rcs_meters":null,"size_class":null,"mass_kg":null,"dimensions":null,"purposes":[],"wikipedia_slug":null,"has_3d_model":false,"image_url":null,"decayed_at":null,"tle_current":{"epoch":"2026-09-19T22:14:41.173152Z","epoch_age_seconds":104438,"freshness":"FRESH","line1":"1 43778U 18099W   26262.92686543  .00005763  00000+0  23511-3 0  9992","line2":"2 43778  97.3706 309.6517 0010433 351.6542   8.4520 15.24767331427080","mean_motion":15.24767331,"eccentricity":0.0010433,"inclination_deg":97.3706,"raan_deg":309.6517,"arg_perigee_deg":351.6542,"mean_anomaly_deg":8.452,"bstar":0.00023511,"rev_number":42708,"period_min":94.4406383009,"perigee_km":484.31710706615,"apogee_km":498.65125862627,"semimajor_km":6869.6211828462,"source":"CELESTRAK","updated_at":"2026-09-20T09:00:14.403727Z"}}}